TimeEDT,TemperatureF,Dew PointF,Humidity,Sea Level PressureIn,VisibilityMPH,Wind Direction,Wind SpeedMPH,Gust SpeedMPH,PrecipitationIn,Events,Conditions,WindDirDegrees,DateUTC
12:00 AM,28.4,28.4,100,29.97,1.8,NW,9.2,17.3,N/A,,Overcast,310,2013-03-27 04:00:00
12:20 AM,28.4,28.4,100,29.98,1.8,NW,10.4,-,N/A,,Overcast,310,2013-03-27 04:20:00
12:40 AM,28.4,28.4,100,29.97,3.0,WNW,9.2,19.6,N/A,,Overcast,290,2013-03-27 04:40:00
1:00 AM,28.4,28.4,100,29.97,5.0,WNW,8.1,23.0,N/A,,Overcast,300,2013-03-27 05:00:00
1:20 AM,28.4,28.4,100,29.97,7.0,NW,10.4,18.4,N/A,,Overcast,310,2013-03-27 05:20:00
1:40 AM,28.4,28.4,100,29.97,3.0,West,10.4,17.3,N/A,,Overcast,270,2013-03-27 05:40:00
2:00 AM,26.6,26.6,100,29.97,3.0,West,8.1,20.7,N/A,,Overcast,280,2013-03-27 06:00:00
2:20 AM,26.6,26.6,100,29.97,7.0,WNW,10.4,21.9,N/A,,Overcast,290,2013-03-27 06:20:00
2:40 AM,26.6,26.6,100,29.97,7.0,West,11.5,-,N/A,,Overcast,280,2013-03-27 06:40:00
3:00 AM,26.6,26.6,100,29.97,7.0,WNW,9.2,-,N/A,,Overcast,290,2013-03-27 07:00:00
3:20 AM,26.6,26.6,100,29.97,7.0,WNW,8.1,-,N/A,,Overcast,290,2013-03-27 07:20:00
3:40 AM,26.6,26.6,100,29.97,7.0,West,8.1,-,N/A,,Overcast,280,2013-03-27 07:40:00
4:00 AM,26.6,26.6,100,29.97,7.0,West,6.9,17.3,N/A,,Overcast,270,2013-03-27 08:00:00
4:20 AM,26.6,26.6,100,29.96,4.0,West,8.1,-,N/A,,Overcast,280,2013-03-27 08:20:00
4:40 AM,26.6,26.6,100,29.96,4.0,West,8.1,16.1,N/A,,Overcast,260,2013-03-27 08:40:00
5:00 AM,26.6,26.6,100,29.96,1.5,West,6.9,16.1,N/A,,Overcast,270,2013-03-27 09:00:00
5:20 AM,26.6,26.6,100,29.96,1.2,West,8.1,-,N/A,,Overcast,270,2013-03-27 09:20:00
5:40 AM,26.6,26.6,100,29.96,2.0,West,9.2,16.1,N/A,,Overcast,270,2013-03-27 09:40:00
6:00 AM,26.6,26.6,100,29.96,2.5,West,8.1,17.3,N/A,,Overcast,280,2013-03-27 10:00:00
6:20 AM,26.6,26.6,100,29.97,1.5,West,11.5,17.3,N/A,,Overcast,280,2013-03-27 10:20:00
7:00 AM,26.6,26.6,100,29.97,1.5,West,11.5,19.6,N/A,,Overcast,280,2013-03-27 11:00:00
7:20 AM,26.6,26.6,100,29.98,1.0,West,9.2,18.4,N/A,,Overcast,280,2013-03-27 11:20:00
7:40 AM,26.6,26.6,100,29.98,1.2,West,11.5,20.7,N/A,,Overcast,280,2013-03-27 11:40:00
8:00 AM,26.6,26.6,100,29.99,1.0,West,12.7,18.4,N/A,,Overcast,270,2013-03-27 12:00:00
8:20 AM,26.6,26.6,100,30.00,0.8,West,10.4,18.4,N/A,,Overcast,270,2013-03-27 12:20:00
8:40 AM,26.6,26.6,100,30.00,1.0,West,13.8,19.6,N/A,,Overcast,270,2013-03-27 12:40:00
9:00 AM,26.6,26.6,100,30.01,0.8,West,12.7,19.6,N/A,,Overcast,270,2013-03-27 13:00:00
9:20 AM,26.6,26.6,100,30.01,1.0,West,8.1,20.7,N/A,,Overcast,280,2013-03-27 13:20:00
9:40 AM,26.6,26.6,100,30.01,0.8,West,10.4,20.7,N/A,,Overcast,280,2013-03-27 13:40:00
10:00 AM,26.6,26.6,100,30.02,1.0,West,12.7,17.3,N/A,,Overcast,270,2013-03-27 14:00:00
10:20 AM,26.6,26.6,100,30.02,1.2,West,10.4,18.4,N/A,,Overcast,270,2013-03-27 14:20:00
11:00 AM,26.6,26.6,100,30.02,1.2,West,11.5,17.3,N/A,,Overcast,280,2013-03-27 15:00:00
11:20 AM,28.4,28.4,100,30.03,1.5,West,12.7,19.6,N/A,,Overcast,280,2013-03-27 15:20:00
11:40 AM,28.4,28.4,100,30.03,2.0,West,10.4,20.7,N/A,,Overcast,280,2013-03-27 15:40:00
12:00 PM,28.4,28.4,100,30.03,0.5,West,12.7,17.3,N/A,Fog,Light Freezing Fog,270,2013-03-27 16:00:00
12:20 PM,28.4,28.4,100,30.03,2.0,West,15.0,23.0,N/A,,Overcast,280,2013-03-27 16:20:00
12:40 PM,28.4,28.4,100,30.04,2.5,West,10.4,17.3,N/A,,Overcast,280,2013-03-27 16:40:00
1:00 PM,28.4,28.4,100,30.04,3.0,West,12.7,19.6,N/A,,Overcast,280,2013-03-27 17:00:00
1:20 PM,28.4,28.4,100,30.04,2.5,WNW,9.2,21.9,N/A,,Overcast,290,2013-03-27 17:20:00
1:40 PM,30.2,30.2,100,30.04,4.0,West,9.2,18.4,N/A,,Overcast,280,2013-03-27 17:40:00
2:00 PM,30.2,30.2,100,30.04,2.0,West,13.8,19.6,N/A,,Overcast,280,2013-03-27 18:00:00
2:20 PM,30.2,28.4,93,30.03,2.0,West,6.9,-,N/A,,Overcast,270,2013-03-27 18:20:00
3:00 PM,30.2,26.6,86,30.03,1.5,West,12.7,19.6,N/A,,Overcast,270,2013-03-27 19:00:00
3:20 PM,32.0,23.0,69,30.02,10.0,West,16.1,21.9,N/A,,Overcast,270,2013-03-27 19:20:00
3:40 PM,32.0,23.0,69,30.02,7.0,West,15.0,24.2,N/A,,Overcast,270,2013-03-27 19:40:00
4:00 PM,32.0,23.0,69,30.02,10.0,West,9.2,18.4,N/A,,Overcast,270,2013-03-27 20:00:00
4:20 PM,32.0,23.0,69,30.02,3.0,West,10.4,21.9,N/A,,Haze,280,2013-03-27 20:20:00
4:40 PM,32.0,23.0,69,30.02,10.0,West,11.5,19.6,N/A,,Overcast,280,2013-03-27 20:40:00
5:00 PM,32.0,23.0,69,30.02,5.0,West,12.7,19.6,N/A,,Haze,280,2013-03-27 21:00:00
5:25 PM,30.2,24.8,80,30.02,5.0,WNW,12.7,21.9,N/A,,Haze,290,2013-03-27 21:25:00
5:45 PM,32.0,23.0,69,30.03,10.0,West,6.9,-,N/A,,Overcast,280,2013-03-27 21:45:00
6:05 PM,32.0,24.8,75,30.03,7.0,West,10.4,21.9,N/A,,Overcast,280,2013-03-27 22:05:00
6:25 PM,32.0,23.0,69,30.04,10.0,WNW,11.5,17.3,N/A,,Overcast,300,2013-03-27 22:25:00
7:05 PM,32.0,21.2,64,30.04,10.0,West,11.5,24.2,N/A,,Mostly Cloudy,280,2013-03-27 23:05:00
7:25 PM,30.2,23.0,75,30.04,10.0,West,10.4,18.4,N/A,,Mostly Cloudy,270,2013-03-27 23:25:00
7:45 PM,30.2,21.2,69,30.04,10.0,West,13.8,20.7,N/A,,Overcast,280,2013-03-27 23:45:00
8:05 PM,30.2,21.2,69,30.04,10.0,West,13.8,19.6,N/A,,Overcast,270,2013-03-28 00:05:00
8:25 PM,30.2,21.2,69,30.04,10.0,West,12.7,19.6,N/A,,Overcast,270,2013-03-28 00:25:00
9:05 PM,30.2,21.2,69,30.05,10.0,West,13.8,20.7,N/A,,Overcast,280,2013-03-28 01:05:00
9:25 PM,30.2,21.2,69,30.05,10.0,West,13.8,20.7,N/A,,Overcast,280,2013-03-28 01:25:00
9:45 PM,30.2,23.0,75,30.06,10.0,West,11.5,24.2,N/A,,Overcast,280,2013-03-28 01:45:00
10:05 PM,30.2,23.0,75,30.07,10.0,West,9.2,19.6,N/A,,Overcast,280,2013-03-28 02:05:00
10:25 PM,30.2,23.0,75,30.06,10.0,West,10.4,20.7,N/A,,Overcast,280,2013-03-28 02:25:00
10:45 PM,30.2,23.0,75,30.07,10.0,West,10.4,17.3,N/A,,Overcast,280,2013-03-28 02:45:00
11:05 PM,30.2,23.0,75,30.07,7.0,West,10.4,17.3,N/A,,Overcast,270,2013-03-28 03:05:00
11:25 PM,30.2,23.0,75,30.06,10.0,West,12.7,17.3,N/A,,Overcast,280,2013-03-28 03:25:00
11:45 PM,30.2,23.0,75,30.06,7.0,West,8.1,21.9,N/A,,Overcast,270,2013-03-28 03:45:00